Location: *
(53.9002°N, 27.5624°E)
Time: 00:46:19
(UTC+00:00)

Cosmos 1371 Rocket - Pass Details

Date: 12 November 2019
Orbit: 754 x 789 km, 74.0° (Epoch: 05 December)

Event Time Altitude Azimuth Distance (km) Brightness Sun altitude
Rises 16:43:32 0° 334° (NNW) 3,250 7.6 -21.5°
Reaches altitude 10° 16:45:57 10° 338° (NNW) 2,315 6.7 -21.9°
Maximum altitude 16:51:10 62° 59° (ENE) 855 3.9 -22.6°
Enters shadow 16:51:47 57° 94° (E) 892 3.9 -22.7°
